Flag for Poland Weather past 2 weeks in Jastrzębie Zdrój, Poland

Now
68 °F

Overcast.


Feels Like: 68 °F
Forecast: 56 / 78 °F
Wind: N/A

Location: Ostrava / Mosnov

Current Time: Jul 24, 2014 at 4:12:23 PM

Latest Report: Jul 24, 2014 at 3:00 PM


Visibility: 16 mi

Pressure: 29.85 "Hg

Humidity: 74%

Dew point: 60 °F

Location of Jastrzębie ZdrójLocation

Historic Weather in Jastrzębie Zdrój — Graph

°F

Jastrzębie Zdrój temperature yesterday

Maximum temperature yesterday: 66 °F (at 2:00 AM)
Minimum temperature yesterday: 60 °F (at 4:00 AM)
Average temperature yesterday: 62 °F

Past Weeks' High & Low Weather Summary

 TemperatureHumidityPressure
High88 °F (Jul 20, 4:00 PM)98% (Jul 12, 5:00 AM)30.16 "Hg (Jul 12, 5:00 AM)
Low49 °F (Jul 13, 5:00 AM)35% (Jul 19, 3:00 PM)29.65 "Hg (Jul 9, 3:00 PM)
Average69 °F73%29.91 "Hg
* Reported Jul 9 3:00 PM — Jul 24 2:00 PM, Jastrzębie Zdrój, Weather by CustomWeather, © 2014

Note: Actual official high and low records may vary slightly from our data, if they occured in-between our weather recording intervals... More about our weather records

Advertising

Jastrzębie Zdrój weather history for previous 24 hours

 ConditionsComfort  
Time TempWeatherWind HumidityBarometerVisibility
2:00 PM
Jul 24
69 °FOvercast.N/A78%29.85 "Hg12 mi
1:00 PM64 °FLight rain. Overcast.N/A85%29.86 "Hg6 mi
12:00 PM63 °FLow clouds.3 mph90%29.85 "Hg6 mi
11:00 AM63 °FFog.5 mph90%29.85 "Hg5 mi
10:00 AM62 °FOvercast.5 mph91%29.84 "Hg6 mi
9:00 AM62 °FOvercast.3 mph92%29.84 "Hg6 mi
8:00 AM61 °FLow clouds.5 mph94%29.85 "Hg6 mi
7:00 AM60 °FDrizzle. Low clouds.5 mph97%29.85 "Hg3 mi
6:00 AM60 °FDrizzle. Low clouds.5 mph96%29.86 "Hg2 mi
5:00 AM60 °FDrizzle. Low clouds.5 mph94%29.87 "Hg2 mi
4:00 AM60 °FFog.5 mph94%29.88 "Hg3 mi
3:00 AM60 °FFog.5 mph95%29.89 "Hg4 mi
2:00 AM60 °FFog.6 mph96%29.90 "Hg4 mi
1:00 AM60 °FOvercast.5 mph94%29.92 "Hg9 mi
12:00 AM60 °FOvercast.5 mph93%29.93 "Hg9 mi
11:00 PM
Jul 23
60 °FOvercast.3 mph94%29.93 "Hg9 mi
10:00 PM60 °FOvercast.1 mph93%29.94 "Hg16 mi
9:00 PM61 °FLight rain. Overcast.5 mph92%29.94 "Hg9 mi
8:00 PM62 °FThunderstorms. Overcast.5 mph94%29.94 "Hg7 mi
7:00 PM64 °FThundershowers. Overcast.6 mph85%29.92 "Hg5 mi
6:00 PM65 °FPartly sunny.2 mph85%29.90 "Hg12 mi
5:00 PM64 °FThunderstorms. Partly sunny.N/A88%29.90 "Hg16 mi
4:00 PM63 °FThundershowers. Overcast.6 mph75%29.92 "Hg7 mi
Weather by CustomWeather, © 2014

See weather overviewHow to use our weather pages